Location: Killam
(52.7910°N, 111.8608°W)
Time: 01:18:22
(UTC+00:00)

AO-85 - Pass Details

Date: 10 December 2023
Orbit: 516 x 753 km, 64.8° (Epoch: 04 January)

Event Time Altitude Azimuth Distance (km) Brightness Sun altitude
Rises 00:39:59 0° 314° (NW) 2,799 ? -12.3°
Reaches altitude 10° 00:42:28 10° 327° (NNW) 1,936 ? -12.6°
Maximum altitude 00:46:09 26° 25° (NNE) 1,242 ? -13.2°
Enters shadow 00:47:54 20° 59° (ENE) 1,455 ? -13.4°
